Location: Costa Valle Imagna
(45.8000°N, 9.5000°E)
Time: 15:01:29
(UTC+00:00)

CZ-2C R/B - Pass Details

Date: 17 February 2020
Orbit: 667 x 785 km, 98.1° (Epoch: 08 April)

Event Time Altitude Azimuth Distance (km) Brightness Sun altitude
Rises 03:01:17 0° 20° (NNE) 3,287 6.3 -35.3°
Reaches altitude 10° 03:03:48 10° 29° (NNE) 2,351 5.5 -34.9°
Enters shadow 03:08:22 37° 89° (E) 1,193 3.8 -34.1°
